Погода Усановы

Погода Усановы : погода сейчас, прогноз погоды и архив. Всё, что Вы хотите узнать о погоде Усановы!

Поиск расширенной информации на нашем сайте:

Другие новости

Новости СМИ2

Главная страница сайта

Новости сайта

02.10.2013

Напоминаем, что на нашем новом сайте вы можете получить высокодетализированные прогнозы погоды по пунктам России, СНГ и мира (включающие важные для авиации метеовеличины, такие как направление и скорость ветра, видимость, явления погоды, количество и форма облачности, нижняя и верхняя граница облачности), а также ознакомиться с разнообразными материалами по авиационной метеорологии и подборкой полезных ссылок на эту тему.

Сайт Метеоцентр.Азия посвящён разработке технологий оптимизации авиаметеорологического обслуживания, включая проектирование и перспективное создание нескольких автоматизированных авиаметеорологических систем:
- система выпуска высокодетальных прогностических карт явлений погоды для нижнего воздушного пространства по России и ближнему зарубежью;
- система верификации прогнозов TAF (выпускаемых синоптиками официальных АМСГ РФ и ближнего зарубежья) и AUTOTAF (выпускаемых сайтом Метеоцентр.Азия) - выявление ошибок, онлайн-сопоставление с фактической погодой METAR, автоматическое внесение коррективов в прогнозы при резком отклонении фактической погоды от прогноза, подсчёт оправдываемости прогнозов по элементам и в целом;
- система обработки, анализа и отображения авиаметеорологической информации для применения провайдерами метеорологической информации.

Рекомендуем: Генераторы бензиновые купить генераторы.

Погода Усановы - сегодня

Время (UTC), дата Ветер
(°,м/с) 
Видим.   Явления Облачность Т
(°С)
Тd
(°С)
f(%) Тe
(°С)
Pmin
(гПа)
dP
(гПа)
Po
(мм)
O2
(г/м3)
Тmin Tmax R s Состояние
почвы
03 18.02.17 210 (ЮЗ) 10 км    10/0 средняя 
[Ac As]
-11.6 -14.2 81 -15  1012.2  0.1  753  318  -12.4    0.2  77  равномерный
сухой снег
100% 
06 18.02.17 210 (ЮЗ) 10 км    10/3 600 м верхняя 
[Sc|Cs]
-10.5 -14.3 74 -14  1012.3  0.1  753  317           
09 18.02.17 220 (ЮЗ) 10 км  позёмок  8/0 верхняя 
[Ci fib]
-8.3 -13.7 65 -11  1011.8  -0.5  753  314           
12 18.02.17 210 (ЮЗ) 10 км  позёмок  9/3 600 м верхняя 
[Sc|Ci fib]
-10.5 -14.7 71 -14  1011.1  -0.7  752  317           
15 18.02.17 190 (Ю) 10 км  позёмок  ясно 
-11.7 -14.8 78 -15  1010.4  -0.8  752  318    -7.8       
18 18.02.17 180 (Ю) 10 км    ясно 
-13.1 -15.3 84 -15  1009.9  -0.5  751  319           
21 18.02.17 190 (Ю) 10 км    8/0 средняя, верхняя 
[Ac trans|Ci fib]
-13.8 -16.2 82 -16  1008.8  -1  751  320           
00 19.02.17 180 (Ю) 10 км    3/0 верхняя 
[Ci fib]
-14.9 -17.4 81 -17  1007.8  -1  750  321           
03 19.02.17 170 (Ю) 10 км    6/0 верхняя 
[Ci fib]
-15.4 -18 80 -18  1007.1  -0.8  749  321  -15.4      77  равномерный
сухой снег
100% 
06 19.02.17 190 (Ю) 10 км    6/0 средняя 
[Ac lent]
-12.3 -16.9 69 -16  1006.3  -0.7  749  317  -15.6         
09 19.02.17 170 (Ю) 10 км    6/0 средняя 
[Ac lent]
-9.8 -15.5 63 -13  1004.4  -1.8  747  314           
12 19.02.17 180 (Ю) 10 км    8/0 средняя 
[Ac lent]
-9.8 -15.5 63 -13  1004.4  -1.7  746  313           
15 19.02.17 190 (Ю) 10 км    6/0 средняя 
[Ac lent]
-11 -15.2 71 -15  1001.6  -1.1  745  314    -9.2       
18 19.02.17 170 (Ю) 10 км  слаб. снег  10/0 средняя 
[Ac As]
-12.3 -14.5 84 -16  1000.4  -1.2  744  315           
21 19.02.17 180 (Ю) 10 км  слаб. снег  10/0 средняя 
[Ac As]
-13.1 -15.2 84 -15  999.2  -1.2  743  316           
00 20.02.17 170 (Ю) 10 км  слаб. снег  10/0 средняя 
[Ac As]
-13.4 -15.4 85 -16  997.6  -1.5  742  316           
03 20.02.17 160 (Ю) 10 км  слаб. снег  10/0 средняя 
[Ac As]
-13.3 -15.1 86 -13  997.5  0.1  742  316  -13.5    0.6  77  равномерный
сухой снег
100% 
06 20.02.17 190 (Ю) 4000 м  слаб. снег  10/0 средняя 
[Ac As]
-12 -14 85 -12  997.5  0.1  742  314           
09 20.02.17 230 (ЮЗ) 4000 м  слаб. снег  10/0 средняя 
[As op]
-10.6 -13 82 -12  999  1.5  743  313           
12 20.02.17 240 (ЮЗ) 4000 м  слаб. снег  10/0 средняя 
[As op]
-10.4 -12.2 87 -12  1001.7  2.7  745  313           
15 20.02.17 220 (ЮЗ) 10 км  {снег}  ясно 
-13.9 -16 84 -14  1003.1  1.3  746  318    -10     
18 20.02.17 150 (ЮВ) 10 км  {снег}  ясно 
-17.5 -19.2 87 -18  1002.8  -0.4  746  323           
21 20.02.17 150 (ЮВ) 10 км    8/0 средняя 
[Ac trans]
-15.5 -17.3 86 -16  1000.7  -2  745  319           
00 21.02.17 150 (ЮВ) 10 км  слаб. снег  10/0 средняя 
[Ac As]
-13.6 -15.1 88 -14  997.5  -3.1  742  316           
03 21.02.17 160 (Ю) 4000 м  слаб. снег  10/0 средняя 
[Ac As]
-9.5 -10.8 90 -11  994.3  -3.1  740  310  -19.9    0.3  77  равномерный
сухой снег
100% 
Время (UTC), дата Ветер
(°,м/с) 
Видим.   Явления Облачность Т
(°С)
Тd
(°С)
f(%) Тe
(°С)
Pmin
(гПа)
dP
(гПа)
Po
(мм)
O2
(г/м3)
Тmin Tmax R s Состояние
почвы

Для получения пояснительной информации подведите курсор к названию столбца.

ПОГОДА Усановы - архив

Всё, что Вы хотите узнать о погоде Усановы - удобно и подробно!

Выберите нужную дату (начиная с 1 января 2015* года) и нажмите кнопку "Найти".
Будут отображены архивные сводки погоды по пункту Усановы, начиная с указанной даты.


Отображать данные в формате CSV (для использования в таблицах Excel)


Внимание! Наш архив погоды предназначен исключительно для личного некоммерческого использования в познавательных целях. Если Вам необходимы официальные справки о состоянии погоды (для производственных, юридических, коммерческих и т.п. целей), обращайтесь в органы Росгидромета.

*Примечание: данная дата относится к архиву по метеостанциям СССР (Россия, СНГ, Балтия).
Архив по метеостанциям Зарубежной Европы и Азии (кроме Китая) хранится 10 дней, по другим регионам земного шара (Китай, Африка, Америка, Австралия, Океания) - 1 день.

Усановы - район местоположения метеостанции


Название, широта, долгота, высота метеостанции:
Усановы 59.5°ш. 73.4°д. 82 м над ур. моря [Российская Федерация]

Дополнительная информация

В oтличие oт бoльшинства пoгoдных сайтoв мы публикуем пoдрoбную метеoинфoрмацию в детальнoм прoфессиoнальнoм фoрмате.

Характеристики температуры и влажнoсти вoздуха измеряются на высoте 2 м в тени вдали oт зданий и деревьев.
Скoрoсть ветра измеряется на высoте 10 м (на урoвне рoста челoвека скoрoсть ветра ниже в 1.5-2 раза). Если метеoстанция нахoдится в гoрoде или в лесу, тo скoрoсть ветра занижена на 2-4 м/с пo сравнению с oткрытым местoм. Скoрoсть ветра над акватoриями крупных рек и oзёр, а также на вершинах хoлмoв на 2-5 м/с выше, чем в oбычных услoвиях.
Атмoсфернoе давление в разных тoчках местнoсти мoжет значительнo oтличаться oт давления на метеoстанции, в зависимoсти oт услoвий рельефа (при пoдъёме на 10 м давление пoнижается примернo на 1 мм рт.ст.).